Find Lemur-2-Peggy-2004

NORAD ID: 68488 Int'l Des: NNA 2026-067 Owner: SIENV Country: US Constellation: spire operational
LEOCIRCULARRETROGRADESSO

リアルタイム位置

3D地球を読み込み中...

Lemur-2-Peggy-2004について

説明を読み込み中...

次回通過

Passes for default location (London). Set your location on the main map for personalized predictions.

高度履歴

Loading altitude history...

軌道要素

1 68488U 26067CA 26134.31143924 .00001184 00000-0 12250-3 0 9995
2 68488 97.7560 93.0759 0002448 111.1192 249.0289 14.91927570 6675
Epoch: May 14, 2026 • Age: 9 hours

現在のステータス

高度 613.4 km
速度 7.55 km/s
衛星直下点 -50.98°S, 22.89°W
打ち上げ日 Mar 30, 2026
運用期間 0.1 years
タイプ other

技術仕様

分類 Payload
質量 130.00 kg
乾燥質量 130.00 kg
総質量 130.00 kg
長さ 1.20 m
直径 0.80 m
スパン 4.90 m
形状 Box+ 2 pan
製造者 MUON
バスタイプ Muon Halo
フェーズステータス In Orbit
所有者/国 SIENV/US

Most Searched